| time (UTC) | temp F | wind direction | speed MPH | gust MPH | rain 1hr in | rain 24hr in | rain mn in | humidity % | barometer mb |
| 20260831050543 | 59 | 265 | 0.0 | 17.0 | 0.00 | 0.05 | 0.05 | 63 | 1027.8 |
| 20260831050101 | 59 | 300 | 3.0 | 17.0 | 0.00 | 0.05 | 0.05 | 62 | 1027.8 |
| 20260831045543 | 60 | 287 | 3.0 | 14.0 | 0.00 | 0.05 | 0.05 | 61 | 1028.1 |
| 20260831045043 | 60 | 0 | 3.0 | 14.0 | 0.00 | 0.05 | 0.05 | 61 | 1028.2 |
| 20260831044606 | 61 | 0 | 3.0 | 14.0 | 0.00 | 0.05 | 0.05 | 60 | 1028.4 |
| 20260831044042 | 61 | 213 | 3.0 | 14.0 | 0.00 | 0.05 | 0.05 | 59 | 1028.4 |
| 20260831043543 | 61 | 182 | 2.0 | 13.0 | 0.00 | 0.05 | 0.05 | 59 | 1028.3 |
| 20260831043059 | 61 | 238 | 2.0 | 9.0 | 0.00 | 0.05 | 0.05 | 59 | 1028.3 |
| 20260831042544 | 61 | 0 | 1.0 | 9.0 | 0.00 | 0.05 | 0.05 | 59 | 1028.1 |
| 20260831042047 | 61 | 229 | 0.0 | 11.0 | 0.00 | 0.05 | 0.05 | 59 | 1028.1 |
| 20260831041608 | 61 | 306 | 1.0 | 11.0 | 0.00 | 0.05 | 0.05 | 59 | 1027.9 |
| 20260831041046 | 61 | 0 | 0.0 | 9.0 | 0.00 | 0.05 | 0.05 | 60 | 1027.7 |
| 20260831040545 | 61 | 0 | 0.0 | 6.0 | 0.00 | 0.05 | 0.05 | 60 | 1027.5 |
| 20260831040058 | 61 | 0 | 0.0 | 7.0 | 0.00 | 0.05 | 0.05 | 60 | 1027.1 |
| 20260831035544 | 60 | 0 | 0.0 | 7.0 | 0.00 | 0.05 | 0.05 | 61 | 1027.1 |
| 20260831035044 | 60 | 0 | 0.0 | 0.0 | 0.00 | 0.05 | 0.05 | 62 | 1027.0 |
| 20260831034604 | 60 | 0 | 0.0 | 2.0 | 0.00 | 0.05 | 0.05 | 62 | 1026.7 |
| 20260831034044 | 60 | 0 | 0.0 | 2.0 | 0.00 | 0.05 | 0.05 | 62 | 1026.8 |
| 20260831033544 | 60 | 0 | 0.0 | 2.0 | 0.00 | 0.05 | 0.05 | 62 | 1026.7 |
| 20260831033059 | 60 | 0 | 0.0 | 1.0 | 0.00 | 0.05 | 0.05 | 62 | 1026.7 |
| 20260831032546 | 60 | 0 | 0.0 | 1.0 | 0.00 | 0.05 | 0.05 | 61 | 1026.7 |
| 20260831032049 | 61 | 0 | 0.0 | 1.0 | 0.00 | 0.05 | 0.05 | 61 | 1026.7 |
| 20260831031555 | 61 | 0 | 0.0 | 0.0 | 0.00 | 0.05 | 0.05 | 61 | 1026.7 |
| 20260831031046 | 61 | 0 | 0.0 | 0.0 | 0.00 | 0.05 | 0.05 | 61 | 1026.7 |
| 20260831030547 | 61 | 0 | 0.0 | 0.0 | 0.00 | 0.05 | 0.05 | 60 | 1026.6 |
| 20260831025546 | 62 | 0 | 0.0 | 0.0 | 0.00 | 0.05 | 0.05 | 58 | 1026.5 |
| 20260831025046 | 62 | 0 | 0.0 | 3.0 | 0.00 | 0.05 | 0.05 | 57 | 1026.3 |
| 20260831024606 | 63 | 0 | 0.0 | 3.0 | 0.00 | 0.05 | 0.05 | 57 | 1026.2 |
| 20260831024047 | 63 | 0 | 0.0 | 4.0 | 0.00 | 0.05 | 0.05 | 56 | 1026.3 |
| 20260831023547 | 63 | 0 | 0.0 | 7.0 | 0.00 | 0.05 | 0.05 | 56 | 1026.3 |
| 20260831023100 | 63 | 0 | 0.0 | 7.0 | 0.00 | 0.05 | 0.05 | 55 | 1026.3 |
| 20260831022550 | 63 | 0 | 0.0 | 8.0 | 0.00 | 0.05 | 0.05 | 54 | 1026.2 |
| 20260831022050 | 64 | 0 | 0.0 | 8.0 | 0.00 | 0.05 | 0.05 | 54 | 1026.2 |
| 20260831021601 | 64 | 0 | 0.0 | 9.0 | 0.00 | 0.05 | 0.05 | 53 | 1026.1 |
| 20260831021047 | 64 | 256 | 0.0 | 9.0 | 0.00 | 0.05 | 0.05 | 53 | 1025.9 |
| 20260831020547 | 64 | 0 | 0.0 | 7.0 | 0.00 | 0.05 | 0.05 | 53 | 1025.8 |
| 20260831020104 | 64 | 272 | 0.0 | 8.0 | 0.00 | 0.05 | 0.05 | 53 | 1025.7 |
| 20260831015546 | 64 | 0 | 0.0 | 8.0 | 0.00 | 0.05 | 0.05 | 52 | 1025.7 |
| 20260831015045 | 64 | 0 | 0.0 | 9.0 | 0.00 | 0.05 | 0.05 | 52 | 1025.8 |
| 20260831014558 | 64 | 0 | 2.0 | 12.0 | 0.00 | 0.05 | 0.05 | 52 | 1025.9 |
| 20260831014045 | 64 | 251 | 1.0 | 12.0 | 0.00 | 0.05 | 0.05 | 52 | 1025.7 |
| 20260831013545 | 64 | 0 | 2.0 | 12.0 | 0.00 | 0.05 | 0.05 | 52 | 1025.7 |
| 20260831013111 | 65 | 257 | 0.0 | 5.0 | 0.00 | 0.05 | 0.05 | 51 | 1025.7 |
| 20260831012545 | 65 | 0 | 0.0 | 10.0 | 0.00 | 0.05 | 0.05 | 51 | 1025.7 |
| 20260831012047 | 65 | 0 | 1.0 | 10.0 | 0.00 | 0.05 | 0.05 | 50 | 1025.8 |
| 20260831011600 | 65 | 280 | 0.0 | 8.0 | 0.00 | 0.05 | 0.05 | 50 | 1025.8 |
| 20260831011045 | 65 | 0 | 1.0 | 6.0 | 0.00 | 0.05 | 0.05 | 49 | 1025.6 |
| 20260831010545 | 65 | 302 | 1.0 | 8.0 | 0.00 | 0.05 | 0.05 | 49 | 1025.7 |
| 20260831010120 | 65 | 278 | 2.0 | 8.0 | 0.00 | 0.05 | 0.05 | 49 | 1025.8 |
| 20260831005546 | 66 | 240 | 0.0 | 8.0 | 0.00 | 0.05 | 0.05 | 49 | 1025.8 |
| 20260831005046 | 66 | 191 | 0.0 | 7.0 | 0.00 | 0.05 | 0.05 | 48 | 1025.8 |
| 20260831004606 | 66 | 261 | 0.0 | 7.0 | 0.00 | 0.05 | 0.05 | 49 | 1025.8 |
| 20260831004047 | 66 | 239 | 0.0 | 10.0 | 0.00 | 0.05 | 0.05 | 48 | 1025.7 |
| 20260831003545 | 66 | 0 | 1.0 | 10.0 | 0.00 | 0.05 | 0.05 | 47 | 1025.7 |
| 20260831003108 | 66 | 0 | 2.0 | 9.0 | 0.00 | 0.05 | 0.05 | 48 | 1025.7 |
| 20260831002545 | 67 | 269 | 2.0 | 11.0 | 0.00 | 0.05 | 0.05 | 48 | 1025.9 |
| 20260831002046 | 67 | 0 | 2.0 | 11.0 | 0.00 | 0.05 | 0.05 | 47 | 1026.0 |
| 20260831001558 | 67 | 241 | 1.0 | 11.0 | 0.00 | 0.05 | 0.05 | 46 | 1026.0 |
| 20260831001045 | 68 | 0 | 2.0 | 11.0 | 0.00 | 0.05 | 0.05 | 47 | 1025.9 |
| 20260831000545 | 68 | 0 | 2.0 | 9.0 | 0.00 | 0.05 | 0.05 | 46 | 1025.9 |
| 20260831000103 | 68 | 0 | 1.0 | 9.0 | 0.00 | 0.05 | 0.05 | 47 | 1026.1 |
| 20260830235545 | 69 | 0 | 0.0 | 8.0 | 0.00 | 0.05 | 0.05 | 46 | 1026.0 |
| 20260830235045 | 69 | 0 | 0.0 | 4.0 | 0.00 | 0.05 | 0.05 | 46 | 1026.0 |
| 20260830234600 | 69 | 0 | 0.0 | 6.0 | 0.00 | 0.05 | 0.05 | 46 | 1025.9 |
| 20260830234045 | 69 | 0 | 0.0 | 6.0 | 0.00 | 0.05 | 0.05 | 46 | 1025.8 |
| 20260830233545 | 69 | 0 | 1.0 | 8.0 | 0.00 | 0.05 | 0.05 | 47 | 1025.8 |
| 20260830233056 | 69 | 0 | 1.0 | 8.0 | 0.00 | 0.05 | 0.05 | 47 | 1025.7 |
| 20260830232545 | 69 | 0 | 0.0 | 10.0 | 0.00 | 0.05 | 0.05 | 48 | 1025.7 |
| 20260830232045 | 69 | 0 | 0.0 | 10.0 | 0.00 | 0.05 | 0.05 | 47 | 1025.6 |
| 20260830231558 | 69 | 257 | 1.0 | 10.0 | 0.00 | 0.05 | 0.05 | 48 | 1025.5 |
| 20260830231044 | 68 | 0 | 3.0 | 9.0 | 0.00 | 0.05 | 0.05 | 48 | 1025.3 |
| 20260830230545 | 68 | 173 | 2.0 | 7.0 | 0.00 | 0.05 | 0.05 | 48 | 1025.2 |
| 20260830230052 | 68 | 293 | 0.0 | 9.0 | 0.00 | 0.05 | 0.05 | 49 | 1025.3 |
| 20260830225545 | 68 | 0 | 1.0 | 9.0 | 0.00 | 0.05 | 0.05 | 48 | 1025.3 |
| 20260830225049 | 68 | 215 | 3.0 | 11.0 | 0.00 | 0.05 | 0.05 | 49 | 1025.2 |
| 20260830224559 | 68 | 0 | 2.0 | 11.0 | 0.00 | 0.05 | 0.05 | 49 | 1025.1 |
| 20260830224046 | 68 | 305 | 4.0 | 11.0 | 0.00 | 0.05 | 0.05 | 48 | 1025.2 |
| 20260830223546 | 68 | 280 | 1.0 | 11.0 | 0.00 | 0.05 | 0.05 | 48 | 1025.1 |
| 20260830223055 | 68 | 309 | 2.0 | 11.0 | 0.00 | 0.05 | 0.05 | 49 | 1025.1 |
| 20260830222550 | 67 | 0 | 2.0 | 8.0 | 0.00 | 0.05 | 0.05 | 50 | 1024.9 |
| 20260830222046 | 67 | 0 | 2.0 | 10.0 | 0.00 | 0.05 | 0.05 | 50 | 1025.2 |
| 20260830221555 | 67 | 0 | 1.0 | 10.0 | 0.00 | 0.05 | 0.05 | 51 | 1025.0 |
| 20260830221046 | 66 | 219 | 1.0 | 10.0 | 0.00 | 0.05 | 0.05 | 54 | 1025.3 |
| 20260830220547 | 66 | 234 | 2.0 | 7.0 | 0.00 | 0.05 | 0.05 | 54 | 1025.3 |
| 20260830220103 | 66 | 0 | 1.0 | 11.0 | 0.00 | 0.05 | 0.05 | 54 | 1025.3 |
| 20260830215549 | 65 | 238 | 0.0 | 12.0 | 0.00 | 0.05 | 0.05 | 58 | 1025.4 |
| 20260830215050 | 64 | 252 | 2.0 | 12.0 | 0.00 | 0.05 | 0.05 | 57 | 1025.3 |
| 20260830214557 | 65 | 0 | 5.0 | 13.0 | 0.00 | 0.05 | 0.05 | 57 | 1025.5 |
| 20260830214046 | 64 | 360 | 3.0 | 13.0 | 0.00 | 0.05 | 0.05 | 59 | 1025.8 |
| 20260830213548 | 63 | 313 | 2.0 | 12.0 | 0.00 | 0.05 | 0.05 | 61 | 1025.9 |
| 20260830213101 | 62 | 0 | 3.0 | 12.0 | 0.00 | 0.05 | 0.05 | 63 | 1025.9 |
| 20260830212548 | 62 | 200 | 1.0 | 14.0 | 0.00 | 0.05 | 0.05 | 64 | 1026.2 |
| 20260830212045 | 61 | 0 | 2.0 | 23.0 | 0.00 | 0.05 | 0.05 | 64 | 1026.4 |
| 20260830211600 | 61 | 0 | 4.0 | 23.0 | 0.00 | 0.05 | 0.05 | 63 | 1026.4 |
| 20260830211045 | 62 | 226 | 4.0 | 17.0 | 0.03 | 0.05 | 0.05 | 63 | 1026.5 |
| 20260830210545 | 62 | 227 | 6.0 | 17.0 | 0.05 | 0.05 | 0.05 | 64 | 1026.4 |
| 20260830210059 | 60 | 249 | 5.0 | 13.0 | 0.05 | 0.05 | 0.05 | 70 | 1026.3 |
| 20260830205544 | 60 | 211 | 2.0 | 11.0 | 0.05 | 0.06 | 0.05 | 74 | 1026.4 |
| 20260830205045 | 59 | 234 | 3.0 | 12.0 | 0.05 | 0.06 | 0.05 | 83 | 1026.5 |
| 20260830204555 | 58 | 237 | 2.0 | 12.0 | 0.05 | 0.06 | 0.05 | 87 | 1026.5 |
| 20260830204047 | 57 | 203 | 0.0 | 7.0 | 0.05 | 0.06 | 0.05 | 89 | 1026.5 |
| 20260830203546 | 56 | 226 | 0.0 | 8.0 | 0.05 | 0.06 | 0.05 | 89 | 1026.6 |
| 20260830203103 | 55 | 0 | 2.0 | 9.0 | 0.05 | 0.06 | 0.05 | 86 | 1026.6 |
| 20260830202548 | 56 | 272 | 1.0 | 9.0 | 0.05 | 0.06 | 0.05 | 82 | 1027.0 |
| 20260830202044 | 57 | 0 | 0.0 | 15.0 | 0.05 | 0.06 | 0.05 | 77 | 1027.2 |
| 20260830201602 | 59 | 0 | 0.0 | 16.0 | 0.05 | 0.06 | 0.05 | 72 | 1028.1 |
| 20260830201045 | 63 | 243 | 5.0 | 16.0 | 0.02 | 0.03 | 0.02 | 62 | 1028.4 |
| 20260830200545 | 66 | 210 | 5.0 | 14.0 | 0.00 | 0.01 | 0.00 | 51 | 1027.5 |
| 20260830195545 | 67 | 0 | 2.0 | 13.0 | 0.00 | 0.01 | 0.00 | 56 | 1026.1 |
| 20260830195045 | 68 | 295 | 1.0 | 9.0 | 0.00 | 0.01 | 0.00 | 57 | 1025.7 |
| 20260830194605 | 68 | 0 | 1.0 | 9.0 | 0.00 | 0.01 | 0.00 | 54 | 1025.4 |
| 20260830194045 | 68 | 286 | 1.0 | 8.0 | 0.00 | 0.01 | 0.00 | 52 | 1025.2 |
| 20260830193548 | 68 | 0 | 0.0 | 3.0 | 0.00 | 0.01 | 0.00 | 53 | 1025.1 |
| 20260830193101 | 68 | 0 | 0.0 | 4.0 | 0.00 | 0.01 | 0.00 | 53 | 1025.2 |
| 20260830192545 | 69 | 0 | 0.0 | 8.0 | 0.00 | 0.01 | 0.00 | 52 | 1025.2 |
| 20260830192046 | 70 | 0 | 0.0 | 8.0 | 0.00 | 0.01 | 0.00 | 47 | 1025.2 |
| 20260830191558 | 71 | 0 | 1.0 | 8.0 | 0.00 | 0.01 | 0.00 | 45 | 1025.2 |
| 20260830191048 | 71 | 0 | 0.0 | 4.0 | 0.00 | 0.01 | 0.00 | 43 | 1025.2 |
| 20260830190545 | 71 | 0 | 0.0 | 4.0 | 0.00 | 0.01 | 0.00 | 43 | 1024.9 |
| 20260830190058 | 72 | 0 | 0.0 | 3.0 | 0.00 | 0.01 | 0.00 | 43 | 1025.0 |
| 20260830185545 | 72 | 0 | 0.0 | 7.0 | 0.00 | 0.01 | 0.00 | 43 | 1024.7 |
| 20260830185049 | 72 | 144 | 0.0 | 7.0 | 0.00 | 0.01 | 0.00 | 43 | 1024.4 |
| 20260830184554 | 73 | 143 | 0.0 | 6.0 | 0.00 | 0.01 | 0.00 | 42 | 1024.3 |
| 20260830184045 | 73 | 0 | 0.0 | 3.0 | 0.00 | 0.01 | 0.00 | 42 | 1024.5 |
| 20260830183550 | 73 | 0 | 0.0 | 4.0 | 0.00 | 0.01 | 0.00 | 42 | 1024.4 |
| 20260830183101 | 72 | 0 | 0.0 | 5.0 | 0.00 | 0.01 | 0.00 | 43 | 1024.5 |
| 20260830182546 | 72 | 0 | 0.0 | 5.0 | 0.00 | 0.01 | 0.00 | 42 | 1024.5 |
| 20260830182046 | 72 | 0 | 0.0 | 4.0 | 0.00 | 0.01 | 0.00 | 42 | 1024.7 |
| 20260830181601 | 73 | 0 | 0.0 | 8.0 | 0.00 | 0.01 | 0.00 | 41 | 1024.7 |
| 20260830181048 | 73 | 53 | 0.0 | 8.0 | 0.00 | 0.01 | 0.00 | 41 | 1024.7 |
| 20260830180545 | 73 | 0 | 0.0 | 8.0 | 0.00 | 0.01 | 0.00 | 41 | 1024.7 |
| 20260830180055 | 73 | 0 | 0.0 | 8.0 | 0.00 | 0.01 | 0.00 | 41 | 1024.9 |
| 20260830175548 | 74 | 28 | 0.0 | 9.0 | 0.00 | 0.01 | 0.00 | 40 | 1024.8 |
| 20260830175048 | 74 | 0 | 0.0 | 9.0 | 0.00 | 0.01 | 0.00 | 40 | 1024.9 |
| 20260830174637 | 74 | 41 | 1.0 | 9.0 | 0.00 | 0.01 | 0.00 | 39 | 1024.8 |
| 20260830174048 | 74 | 0 | 0.0 | 1.0 | 0.00 | 0.01 | 0.00 | 38 | 1025.0 |
| 20260830173547 | 74 | 0 | 0.0 | 2.0 | 0.00 | 0.01 | 0.00 | 38 | 1024.9 |
| 20260830173058 | 74 | 0 | 0.0 | 4.0 | 0.00 | 0.01 | 0.00 | 40 | 1024.9 |
| 20260830172548 | 74 | 0 | 0.0 | 7.0 | 0.00 | 0.01 | 0.00 | 40 | 1025.0 |
| 20260830172048 | 74 | 261 | 0.0 | 7.0 | 0.00 | 0.01 | 0.00 | 40 | 1025.2 |
| 20260830171609 | 73 | 0 | 1.0 | 7.0 | 0.00 | 0.01 | 0.00 | 40 | 1025.0 |
| 20260830171045 | 73 | 246 | 0.0 | 5.0 | 0.00 | 0.01 | 0.00 | 41 | 1025.1 |
| 20260830170545 | 72 | 0 | 0.0 | 9.0 | 0.00 | 0.01 | 0.00 | 42 | 1025.0 |
| 20260830170049 | 72 | 0 | 1.0 | 9.0 | 0.00 | 0.01 | 0.00 | 43 | 1025.2 |
| 20260830165548 | 71 | 0 | 0.0 | 8.0 | 0.00 | 0.01 | 0.00 | 44 | 1025.2 |
| 20260830165047 | 71 | 0 | 1.0 | 8.0 | 0.00 | 0.01 | 0.00 | 46 | 1025.3 |
| 20260830164559 | 70 | 0 | 1.0 | 7.0 | 0.00 | 0.01 | 0.00 | 46 | 1025.5 |
| 20260830164045 | 69 | 0 | 1.0 | 11.0 | 0.00 | 0.01 | 0.00 | 47 | 1025.4 |
| 20260830163545 | 69 | 0 | 1.0 | 11.0 | 0.00 | 0.01 | 0.00 | 47 | 1025.4 |
| 20260830163058 | 68 | 0 | 0.0 | 8.0 | 0.00 | 0.01 | 0.00 | 49 | 1025.3 |
| 20260830162545 | 68 | 257 | 2.0 | 9.0 | 0.00 | 0.01 | 0.00 | 49 | 1025.3 |
| 20260830162044 | 67 | 267 | 0.0 | 9.0 | 0.00 | 0.01 | 0.00 | 50 | 1025.3 |
| 20260830161612 | 67 | 223 | 2.0 | 8.0 | 0.00 | 0.01 | 0.00 | 51 | 1025.3 |
| 20260830161044 | 66 | 0 | 1.0 | 10.0 | 0.00 | 0.01 | 0.00 | 52 | 1025.5 |
| 20260830160549 | 65 | 0 | 1.0 | 10.0 | 0.00 | 0.01 | 0.00 | 53 | 1025.5 |
| 20260830160058 | 65 | 321 | 0.0 | 7.0 | 0.00 | 0.01 | 0.00 | 55 | 1025.6 |
| 20260830155547 | 64 | 223 | 0.0 | 8.0 | 0.00 | 0.01 | 0.00 | 57 | 1025.7 |
| 20260830155046 | 63 | 0 | 1.0 | 8.0 | 0.00 | 0.01 | 0.00 | 57 | 1025.7 |
| 20260830154556 | 63 | 0 | 0.0 | 0.0 | 0.00 | 0.01 | 0.00 | 58 | 1025.8 |
| 20260830154049 | 63 | 0 | 0.0 | 4.0 | 0.00 | 0.01 | 0.00 | 59 | 1025.8 |
| 20260830153546 | 63 | 0 | 0.0 | 4.0 | 0.00 | 0.01 | 0.00 | 59 | 1025.7 |
| 20260830153053 | 63 | 0 | 0.0 | 4.0 | 0.00 | 0.01 | 0.00 | 59 | 1025.7 |
| 20260830152548 | 63 | 0 | 0.0 | 8.0 | 0.00 | 0.01 | 0.00 | 59 | 1025.6 |
| 20260830152048 | 63 | 0 | 0.0 | 8.0 | 0.00 | 0.01 | 0.00 | 59 | 1025.7 |
| 20260830151601 | 63 | 0 | 0.0 | 10.0 | 0.00 | 0.01 | 0.00 | 59 | 1025.8 |
| 20260830151045 | 62 | 201 | 1.0 | 11.0 | 0.00 | 0.01 | 0.00 | 59 | 1025.8 |
| 20260830150545 | 62 | 0 | 1.0 | 17.0 | 0.00 | 0.01 | 0.00 | 59 | 1025.9 |
| 20260830145547 | 62 | 214 | 5.0 | 17.0 | 0.00 | 0.01 | 0.00 | 59 | 1026.2 |
| 20260830145045 | 62 | 0 | 1.0 | 14.0 | 0.00 | 0.01 | 0.00 | 60 | 1026.3 |
| 20260830144600 | 62 | 162 | 3.0 | 13.0 | 0.00 | 0.01 | 0.00 | 59 | 1026.2 |
| 20260830144045 | 61 | 0 | 0.0 | 2.0 | 0.00 | 0.01 | 0.00 | 59 | 1026.0 |
| 20260830143545 | 61 | 0 | 0.0 | 1.0 | 0.00 | 0.01 | 0.00 | 60 | 1025.7 |
| 20260830143103 | 61 | 0 | 0.0 | 1.0 | 0.00 | 0.01 | 0.00 | 60 | 1025.4 |
| 20260830142545 | 60 | 0 | 0.0 | 6.0 | 0.00 | 0.01 | 0.00 | 61 | 1025.3 |
| 20260830142044 | 60 | 0 | 0.0 | 6.0 | 0.00 | 0.01 | 0.00 | 61 | 1025.2 |
| 20260830141559 | 60 | 0 | 0.0 | 0.0 | 0.00 | 0.01 | 0.00 | 62 | 1025.2 |
| 20260830141044 | 60 | 0 | 0.0 | 0.0 | 0.00 | 0.01 | 0.00 | 62 | 1025.1 |
| 20260830140545 | 60 | 0 | 0.0 | 3.0 | 0.00 | 0.01 | 0.00 | 62 | 1025.1 |
| 20260830140115 | 60 | 0 | 0.0 | 8.0 | 0.00 | 0.01 | 0.00 | 63 | 1025.2 |
| 20260830135544 | 60 | 0 | 0.0 | 8.0 | 0.00 | 0.01 | 0.00 | 63 | 1025.3 |
| 20260830135045 | 59 | 0 | 0.0 | 8.0 | 0.00 | 0.01 | 0.00 | 63 | 1025.3 |
| 20260830134557 | 59 | 0 | 0.0 | 8.0 | 0.00 | 0.01 | 0.00 | 63 | 1025.3 |
| 20260830134045 | 59 | 0 | 0.0 | 8.0 | 0.00 | 0.01 | 0.00 | 64 | 1025.2 |
| 20260830133544 | 59 | 0 | 0.0 | 4.0 | 0.00 | 0.01 | 0.00 | 64 | 1025.2 |
| 20260830133101 | 59 | 0 | 0.0 | 4.0 | 0.00 | 0.01 | 0.00 | 64 | 1025.2 |
| 20260830132544 | 59 | 0 | 0.0 | 6.0 | 0.00 | 0.01 | 0.00 | 64 | 1025.2 |
| 20260830132044 | 59 | 0 | 0.0 | 6.0 | 0.00 | 0.01 | 0.00 | 64 | 1025.2 |
| 20260830131608 | 59 | 0 | 0.0 | 8.0 | 0.00 | 0.01 | 0.00 | 64 | 1025.1 |
| 20260830131047 | 59 | 0 | 0.0 | 8.0 | 0.00 | 0.01 | 0.00 | 64 | 1025.1 |
| 20260830130545 | 58 | 0 | 0.0 | 8.0 | 0.00 | 0.01 | 0.00 | 64 | 1025.1 |
| 20260830130100 | 58 | 0 | 0.0 | 10.0 | 0.00 | 0.01 | 0.00 | 64 | 1025.1 |
| 20260830125545 | 58 | 0 | 0.0 | 10.0 | 0.00 | 0.01 | 0.00 | 64 | 1025.3 |
| 20260830125045 | 58 | 0 | 0.0 | 9.0 | 0.00 | 0.01 | 0.00 | 64 | 1025.2 |
| 20260830124550 | 58 | 0 | 0.0 | 6.0 | 0.00 | 0.01 | 0.00 | 64 | 1025.3 |
| 20260830124048 | 58 | 0 | 0.0 | 8.0 | 0.00 | 0.01 | 0.00 | 64 | 1025.2 |
| 20260830123545 | 58 | 0 | 1.0 | 8.0 | 0.00 | 0.01 | 0.00 | 64 | 1025.2 |
| 20260830123059 | 58 | 0 | 0.0 | 4.0 | 0.00 | 0.01 | 0.00 | 64 | 1025.1 |
| 20260830122545 | 58 | 262 | 0.0 | 6.0 | 0.00 | 0.01 | 0.00 | 64 | 1024.9 |
| 20260830122045 | 58 | 0 | 0.0 | 7.0 | 0.00 | 0.01 | 0.00 | 64 | 1024.9 |
| 20260830121600 | 58 | 360 | 0.0 | 7.0 | 0.00 | 0.01 | 0.00 | 64 | 1024.7 |
| 20260830121044 | 58 | 0 | 0.0 | 7.0 | 0.00 | 0.01 | 0.00 | 63 | 1024.7 |
| 20260830120545 | 58 | 0 | 0.0 | 7.0 | 0.00 | 0.01 | 0.00 | 63 | 1024.5 |
| 20260830120107 | 58 | 0 | 0.0 | 6.0 | 0.00 | 0.01 | 0.00 | 63 | 1024.4 |
| 20260830115545 | 59 | 0 | 0.0 | 4.0 | 0.00 | 0.01 | 0.00 | 62 | 1024.4 |
| 20260830115045 | 59 | 0 | 0.0 | 4.0 | 0.00 | 0.01 | 0.00 | 62 | 1024.4 |
| 20260830114602 | 59 | 0 | 0.0 | 6.0 | 0.00 | 0.01 | 0.00 | 62 | 1024.4 |
| 20260830114044 | 58 | 0 | 0.0 | 6.0 | 0.00 | 0.01 | 0.00 | 63 | 1024.3 |
| 20260830113546 | 58 | 0 | 0.0 | 6.0 | 0.00 | 0.01 | 0.00 | 63 | 1024.1 |
| 20260830113103 | 58 | 0 | 0.0 | 6.0 | 0.00 | 0.01 | 0.00 | 64 | 1024.0 |
| 20260830112550 | 58 | 0 | 0.0 | 6.0 | 0.00 | 0.01 | 0.00 | 64 | 1023.9 |
| 20260830112044 | 58 | 0 | 0.0 | 4.0 | 0.00 | 0.01 | 0.00 | 64 | 1024.0 |
| 20260830111557 | 58 | 274 | 0.0 | 4.0 | 0.00 | 0.01 | 0.00 | 63 | 1024.1 |
| 20260830111046 | 58 | 0 | 0.0 | 4.0 | 0.00 | 0.01 | 0.00 | 63 | 1024.2 |
| 20260830110545 | 58 | 289 | 0.0 | 4.0 | 0.00 | 0.01 | 0.00 | 63 | 1024.3 |
| 20260830110059 | 59 | 0 | 0.0 | 4.0 | 0.00 | 0.01 | 0.00 | 62 | 1024.3 |
| 20260830105547 | 59 | 0 | 0.0 | 7.0 | 0.00 | 0.01 | 0.00 | 61 | 1024.2 |
| 20260830105048 | 59 | 0 | 0.0 | 7.0 | 0.00 | 0.01 | 0.00 | 61 | 1024.2 |
| 20260830104605 | 59 | 0 | 0.0 | 4.0 | 0.00 | 0.01 | 0.00 | 61 | 1024.3 |
| 20260830104045 | 59 | 0 | 0.0 | 7.0 | 0.00 | 0.01 | 0.00 | 61 | 1024.3 |
| 20260830103545 | 59 | 0 | 0.0 | 7.0 | 0.00 | 0.01 | 0.00 | 61 | 1024.3 |
| 20260830103059 | 59 | 290 | 0.0 | 7.0 | 0.00 | 0.01 | 0.00 | 61 | 1024.4 |
| 20260830102545 | 59 | 0 | 0.0 | 7.0 | 0.00 | 0.01 | 0.00 | 62 | 1024.5 |
| 20260830102044 | 58 | 0 | 0.0 | 4.0 | 0.00 | 0.01 | 0.00 | 62 | 1024.4 |
| 20260830101607 | 58 | 282 | 0.0 | 4.0 | 0.00 | 0.01 | 0.00 | 63 | 1024.2 |
| 20260830101044 | 58 | 0 | 0.0 | 4.0 | 0.00 | 0.01 | 0.00 | 63 | 1024.3 |
| 20260830100545 | 58 | 0 | 0.0 | 3.0 | 0.00 | 0.01 | 0.00 | 63 | 1024.3 |
| 20260830100056 | 58 | 0 | 0.0 | 2.0 | 0.00 | 0.01 | 0.00 | 62 | 1024.1 |
| 20260830095545 | 59 | 0 | 0.0 | 3.0 | 0.00 | 0.01 | 0.00 | 62 | 1024.0 |
| 20260830095049 | 59 | 0 | 0.0 | 6.0 | 0.00 | 0.01 | 0.00 | 62 | 1024.0 |
| 20260830094628 | 59 | 0 | 0.0 | 7.0 | 0.00 | 0.01 | 0.00 | 61 | 1024.1 |
| 20260830094045 | 59 | 258 | 0.0 | 15.0 | 0.00 | 0.01 | 0.00 | 61 | 1023.9 |
| 20260830093546 | 59 | 0 | 0.0 | 15.0 | 0.00 | 0.01 | 0.00 | 61 | 1024.0 |
| 20260830093058 | 59 | 0 | 3.0 | 15.0 | 0.00 | 0.01 | 0.00 | 61 | 1024.1 |
| 20260830092546 | 59 | 259 | 1.0 | 11.0 | 0.00 | 0.01 | 0.00 | 61 | 1024.2 |
| 20260830092045 | 59 | 0 | 1.0 | 11.0 | 0.00 | 0.01 | 0.00 | 61 | 1024.2 |
| 20260830091557 | 59 | 0 | 1.0 | 11.0 | 0.00 | 0.01 | 0.00 | 61 | 1024.3 |
| 20260830091047 | 59 | 220 | 0.0 | 10.0 | 0.00 | 0.01 | 0.00 | 61 | 1024.5 |
| 20260830090544 | 59 | 0 | 2.0 | 10.0 | 0.00 | 0.01 | 0.00 | 61 | 1024.7 |
| 20260830090108 | 59 | 302 | 2.0 | 13.0 | 0.00 | 0.01 | 0.00 | 61 | 1024.5 |
| 20260830085545 | 59 | 292 | 1.0 | 13.0 | 0.00 | 0.01 | 0.00 | 61 | 1024.4 |
| 20260830085044 | 59 | 360 | 2.0 | 12.0 | 0.00 | 0.01 | 0.00 | 61 | 1024.4 |
| 20260830084601 | 59 | 0 | 3.0 | 11.0 | 0.00 | 0.01 | 0.00 | 61 | 1024.2 |
| 20260830084045 | 59 | 0 | 2.0 | 11.0 | 0.00 | 0.01 | 0.00 | 61 | 1024.4 |
| 20260830083544 | 59 | 230 | 1.0 | 11.0 | 0.00 | 0.01 | 0.00 | 61 | 1024.4 |
| 20260830083059 | 59 | 247 | 2.0 | 12.0 | 0.00 | 0.01 | 0.00 | 61 | 1024.4 |
| 20260830082544 | 59 | 0 | 2.0 | 12.0 | 0.00 | 0.01 | 0.00 | 61 | 1024.5 |
| 20260830082046 | 59 | 219 | 1.0 | 11.0 | 0.00 | 0.01 | 0.00 | 61 | 1024.6 |
| 20260830081604 | 59 | 236 | 2.0 | 11.0 | 0.00 | 0.01 | 0.00 | 61 | 1024.5 |
| 20260830081045 | 59 | 0 | 1.0 | 11.0 | 0.00 | 0.01 | 0.00 | 62 | 1024.7 |
| 20260830080544 | 59 | 254 | 2.0 | 10.0 | 0.00 | 0.01 | 0.00 | 62 | 1024.7 |
| 20260830080101 | 59 | 273 | 1.0 | 8.0 | 0.00 | 0.01 | 0.00 | 62 | 1024.8 |
| 20260830075545 | 59 | 0 | 1.0 | 8.0 | 0.00 | 0.01 | 0.00 | 62 | 1024.8 |
| 20260830075044 | 59 | 227 | 1.0 | 8.0 | 0.00 | 0.01 | 0.00 | 62 | 1024.7 |
| 20260830074559 | 59 | 245 | 1.0 | 10.0 | 0.00 | 0.01 | 0.00 | 61 | 1024.7 |
| 20260830074045 | 59 | 322 | 2.0 | 10.0 | 0.00 | 0.01 | 0.00 | 61 | 1024.6 |
| 20260830073544 | 59 | 0 | 0.0 | 10.0 | 0.00 | 0.01 | 0.00 | 60 | 1024.6 |
| 20260830073057 | 59 | 273 | 1.0 | 10.0 | 0.00 | 0.01 | 0.00 | 60 | 1024.7 |
| 20260830072545 | 59 | 318 | 1.0 | 9.0 | 0.00 | 0.01 | 0.00 | 60 | 1024.7 |
| 20260830072045 | 59 | 269 | 2.0 | 9.0 | 0.00 | 0.01 | 0.00 | 60 | 1024.8 |
| 20260830071611 | 59 | 237 | 0.0 | 11.0 | 0.00 | 0.01 | 0.00 | 59 | 1024.9 |
| 20260830071045 | 60 | 0 | 1.0 | 11.0 | 0.00 | 0.01 | 0.00 | 59 | 1024.9 |
| 20260830070545 | 60 | 0 | 2.0 | 11.0 | 0.00 | 0.01 | 0.00 | 59 | 1025.0 |
| 20260830065545 | 60 | 0 | 0.0 | 5.0 | 0.00 | 0.01 | 0.00 | 59 | 1025.0 |
| 20260830065044 | 60 | 0 | 0.0 | 5.0 | 0.00 | 0.01 | 0.00 | 58 | 1024.9 |
| 20260830064549 | 60 | 0 | 0.0 | 6.0 | 0.00 | 0.01 | 0.00 | 57 | 1025.0 |
| 20260830064048 | 60 | 0 | 0.0 | 7.0 | 0.00 | 0.01 | 0.00 | 57 | 1025.1 |
| 20260830063545 | 60 | 0 | 0.0 | 7.0 | 0.00 | 0.01 | 0.00 | 57 | 1025.1 |
| 20260830063058 | 60 | 0 | 0.0 | 3.0 | 0.00 | 0.01 | 0.00 | 56 | 1025.1 |
| 20260830062545 | 61 | 0 | 0.0 | 3.0 | 0.00 | 0.01 | 0.00 | 56 | 1025.1 |
| 20260830062044 | 61 | 0 | 0.0 | 3.0 | 0.00 | 0.01 | 0.00 | 55 | 1025.2 |
| 20260830061556 | 61 | 257 | 0.0 | 8.0 | 0.00 | 0.01 | 0.00 | 55 | 1025.2 |
| 20260830061044 | 61 | 0 | 0.0 | 8.0 | 0.00 | 0.01 | 0.00 | 54 | 1025.3 |
| 20260830060544 | 61 | 262 | 0.0 | 7.0 | 0.00 | 0.01 | 0.00 | 54 | 1025.2 |
| 20260830060054 | 61 | 253 | 0.0 | 1.0 | 0.00 | 0.01 | 0.00 | 55 | 1025.3 |
| 20260830055556 | 61 | 0 | 0.0 | 7.0 | 0.00 | 0.01 | 0.01 | 56 | 1025.2 |
| 20260830055045 | 60 | 0 | 0.0 | 7.0 | 0.00 | 0.01 | 0.01 | 56 | 1025.2 |
| 20260830054604 | 60 | 0 | 0.0 | 2.0 | 0.00 | 0.01 | 0.01 | 57 | 1025.3 |
| 20260830054043 | 60 | 0 | 0.0 | 2.0 | 0.00 | 0.01 | 0.01 | 57 | 1025.4 |
| 20260830053547 | 60 | 0 | 0.0 | 2.0 | 0.00 | 0.01 | 0.01 | 58 | 1025.4 |
| 20260830053105 | 60 | 0 | 0.0 | 2.0 | 0.00 | 0.01 | 0.01 | 58 | 1025.3 |
| 20260830052545 | 60 | 0 | 0.0 | 2.0 | 0.00 | 0.01 | 0.01 | 59 | 1025.2 |
| 20260830052044 | 60 | 0 | 0.0 | 2.0 | 0.00 | 0.01 | 0.01 | 59 | 1025.3 |
| 20260830051601 | 59 | 0 | 0.0 | 4.0 | 0.00 | 0.01 | 0.01 | 60 | 1025.4 |
| 20260830051044 | 59 | 0 | 0.0 | 7.0 | 0.00 | 0.01 | 0.01 | 60 | 1025.5 |